Regional Weather Roundup
Issued by NWS

Home | Current Version | Previous Version | Text Only | Print | Product List | Glossary Off
Versions: 1 2 3 4 5 6 7 8 9 10 11 12 13 14 15 16 17 18 19 20 21 22 23 24 25 26 27 28 29 30 31 32 33 34 35 36 37 38 39 40 41 42 43 44 45 46 47 48 49 50

000
ASUS45 KTFX 280810
RWRMT
MONTANA REGIONAL WEATHER ROUNDUP
NATIONAL WEATHER SERVICE GREAT FALLS MT
200 AM MDT WED SEP 28 2016

NOTE: "FAIR" INDICATES FEW OR NO CLOUDS BELOW 12000 FEET WITH NO
SIGNIFICANT WEATHER AND/OR OBSTRUCTIONS TO VISIBILITY.

MTZ001>007-043-280900-
WEST OF THE DIVIDE

CITY           SKY/WX    TMP DP  RH WIND       PRES   REMARKS
KALISPELL      CLEAR     60  39  45 N17G25    30.10R
MISSOULA       CLEAR     50  44  80 CALM      30.13R
BUTTE          CLEAR     44  37  76 S8        30.25R
MULLAN PASS    CLEAR     56  42  59 S3        30.21S
DEER LODGE       N/A     54  43  66 NW5       30.24S
EUREKA           N/A     52  43  71 CALM      30.14
HAMILTON         N/A     52  43  71 SE3       30.14R
LIBBY            N/A     46  45  93 CALM      30.10R
RONAN            N/A     51  44  77 N3        30.13R
$$

MTZ008-052>055-280900-
SOUTHWEST MONTANA

CITY           SKY/WX    TMP DP  RH WIND       PRES   REMARKS
BOZEMAN        CLEAR     48  40  73 SE6       30.21R
DILLON         CLEAR     50  36  58 S9        30.22R
W YELLOWSTONE    N/A     36  32  87 CALM      30.34R
ENNIS          CLEAR     50  36  57 CALM      30.28S
THREE FORKS      N/A     43  22  43 CALM      30.18R
TWIN BRIDGES     N/A     51  37  58 CALM      30.17S
$$

MTZ009-010-012-014-046-048-049-054-280900-
EAST SLOPES AND CENTRAL MONTANA

CITY           SKY/WX    TMP DP  RH WIND       PRES   REMARKS
CUT BANK       CLEAR     39  34  82 NW10      30.32S
GREAT FALLS    CLEAR     43  38  82 W7        30.31R
MALMSTROM AFB  CLEAR     49  39  69 W5        30.31R
HELENA         CLEAR     54  41  61 W9        30.25R
AUGUSTA          N/A     45  37  71 N15       30.31R
BOWMANS CRNR     N/A     43  36  76 NW8       30.30S
CHOTEAU          N/A     43  37  81 NW5       30.33R
FAIRFIELD        N/A     43  37  77 W5        30.31R
POWER            N/A     41  36  82 N7        30.30R
RAYNESFORD       N/A     48  41  76 NW3       30.30R
$$

MTZ011-013-016-021-045-047-050-051-280900-
NORTH CENTRAL MONTANA

CITY           SKY/WX    TMP DP  RH WIND       PRES   REMARKS
HAVRE          CLOUDY    51  44  77 N3        30.28R
LEWISTOWN      CLEAR     48  44  86 W8        30.28R
N BAR RANCH      N/A     52  45  76 NW10      30.28R
CHINOOK          N/A     54  43  66 W3        30.27R
DENTON           N/A     52  43  72 NW14      30.23R
GEYSER           N/A     45  37  71 N15       30.31R
GRASS RANGE      N/A     49  45  85 SW9       30.23R
JUDITH GAP       N/A     47  44  88 N17       30.26R
ROY              N/A     51  47  86 MISG      30.24R
STANFORD         N/A     49  42  74 NW17G24   30.28R
WINIFRED       PTSUNNY   50  45  84 MISG      30.26R
$$

MTZ017>020-022>027-061-062-280900-
NORTHEAST MONTANA

CITY           SKY/WX    TMP DP  RH WIND       PRES   REMARKS
GLASGOW        CLEAR     57  46  66 W14       30.14R
JORDAN           N/A     58  48  69 VRB5      30.14R
SIDNEY         CLEAR     51  47  86 N3        30.07R
WOLF POINT     CLEAR     62  47  57 VRB7G28   30.09R
PLENTYWOOD       N/A     54  48  82 W10       30.10R
POPLAR           N/A     59  46  63 N15G21    30.09R
$$

MTZ028>42-056>058-280900-
SOUTHCENTRAL AND SOUTHEAST MONTANA

CITY           SKY/WX    TMP DP  RH WIND       PRES   REMARKS
BAKER          CLEAR     50  46  86 CALM      30.11R
BILLINGS       CLEAR     60  43  53 SW13      30.16R
LIVINGSTON     CLEAR     48  40  73 W3        30.23R
MILES CITY     CLEAR     54  47  77 W5        30.09R
BIG TIMBER     CLEAR     52  39  62 W7        30.24R
FORSYTH          N/A     55  46  71 CALM      30.11R
HARLOWTON        N/A     54  46  73 N25G32    30.21R
LAUREL           N/A     53  40  61 W2        30.13R
ROUNDUP          N/A     59  45  59 N7        30.10R
$$

REGIONAL REPORTS...DAKOTAS

CITY           SKY/WX    TMP DP  RH WIND       PRES   REMARKS
WILLISTON      CLEAR     53  46  77 NE3       30.06R
MINOT          CLEAR     44  38  79 E3        30.09R
DICKINSON      CLEAR     50  43  77 S9        30.07R
BEACH            N/A     46  46 100 S5        30.12R
CROSBY           N/A     45  45 100 E3        30.10R
WATFORD CITY     N/A     46  46 100 CALM      30.07R
BISMARCK       CLOUDY    42  37  82 NE7       30.11R
GRAND FORKS    CLOUDY    42  39  89 NW7       30.11R
FARGO          CLOUDY    41  38  89 N6        30.09R
BUFFALO SD       N/A     52  44  74 E3        30.05R
RAPID CITY     CLEAR     56  41  57 NW9       30.13R
$$

REGIONAL REPORTS...WYOMING/IDAHO/WASHINGTON

CITY           SKY/WX    TMP DP  RH WIND       PRES   REMARKS
GILLETTE       CLEAR     49  44  83 S6        30.20R
SHERIDAN       CLEAR     48  41  76 W3        30.19R
BUFFALO WY     CLEAR     55  37  50 W9        30.25R
CODY           CLEAR     57  41  54 SW6       30.25S
YELLOWSTONE LA   N/A     34  33  96 CALM      30.41S
IDAHO FALLS    CLEAR     47  41  80 N7        30.19S
SALMON         CLEAR     46  39  76 CALM      30.16R
BOISE          CLEAR     65  40  39 SE10      30.02R
SPOKANE        PTCLDY    54  38  54 CALM      30.05S
$$

REGIONAL REPORTS...ALBERTA

CITY           SKY/WX    TMP DP  RH WIND       PRES   REMARKS
EDMONTON       CLEAR     39  27  60 W7        30.30R
CALGARY        CLOUDY    48  39  71 E5        30.32R
LETHBRIDGE     CLOUDY    48  37  66 VRB3      30.33R
MEDICINE HAT   MOCLDY    43  37  81 S3        30.30R
$$

REGIONAL REPORTS...SASKATCHEWAN

CITY           SKY/WX    TMP DP  RH WIND       PRES   REMARKS
SWIFT CURRENT  CLEAR     45  39  81 N9        30.24R
REGINA         CLEAR     50  46  87 NW17      30.12R
SASKATOON      CLEAR     39  39 100 NW8       30.24R
$$



USA.gov is the U.S. government's official web portal to all federal, state and local government web resources and services.